FENGYUN 1C DEB, 31485

Orbit data source: Space-Track

FENGYUN 1C DEB, 31485 is space debris in SSO originally from a launch on Mon, 10 May 1999 UTC launched from the Taiyaun Space Center, China (TSC). Fengyun 1C debris stems from the Chinese weather satellite Fengyun-1C, which was intentionally destroyed by a Chinese anti-satellite missile in 2007. This event dramatically increased the amount of space debris, with thousands of trackable fragments posing hazards to satellites and human spaceflight. The Fengyun 1C debris cloud has become a focal point in discussions about space sustainability and the need for international regulations to prevent the creation of new debris.

Loading next visibility...
Identifier
31485, 1999-025BVZ
Orbit
SSO
Country
Flag of CNCN / PRC
Related business
Manufacturer
Unknown
Mission
Spacecraft
Bus & Motor
Unknown
Mass
Unknown
Launch date (UTC)
1999-05-10 (27 years ago)
Launch vehicle
Unknown
Launch site
Taiyaun Space Center, China (TSC)
Object type
Payload
Rocket body
Debris
Shape & HBR
Unknown shape, 0.1 m
Radar Cross Section
Medium (>0.1 m² and <1 m²)

Expand to show TLE details & history
Last TLE update: 1 day ago

TLE from 1 day ago
0 FENGYUN 1C DEB
1 31485U 99025BVZ 26256.20511058  .00002042  00000-0  21159-2 0  9997
2 31485 102.7038 158.9287 0443742  84.5840 280.5720 13.41341909941235
Epoch: 2026-09-13T04:55Z
TLE epoch observation values (Epoch: 2026-09-13T04:55:21.554Z)
Latitude
0.00004°
Longitude
92.88578°
Altitude
1,060.416 km
Speed
7.345 km/s
True Right ascension
10h 35m 42s
True Declination
0° 00' 00"
Sunlit
Object was in daylight at epoch
Visualization orbit readout
Latitude
Unknown
Longitude
Unknown
Altitude
Unknown
Speed
Unknown
Apparent Right ascension
Unknown
Apparent Declination
Unknown
Sunlit
N/A
Visualization observer readout
Local Sidereal Time
23:09:36
Azimuth
Unknown
Elevation
Unknown
Doppler factor
Unknown
Orbital elements
Apogee altitude
1,433.681 km
Perigee altitude
769.852 km
Semi-major axis
7,479.903 km
Eccentricity
0.04437
Inclination
102.7038°
RAAN
158.9287°
Arg. of periapsis
84.584°
True anomaly
275.52856°
Mean anomaly
280.572°
Eccentric anomaly
278.05463°
Mean motion
3.35505 °/min
Orbital period
107.3 mins
BSTAR
0.0021159
Loading maneuver chart data...
Computing Atmospheric mass density...
Loading historical data...
Loading historical data...
Loading historical data...
Loading historical data...
Loading historical data...
Loading historical data...
Loading historical data...

Documentation

Showing up to 5 results
|